Location: Dobie Observatory
(42.2815°N, 84.4219°W)
Time: 06:40:34
(UTC-05:00)

ARIANE 6 FM1 Upper Stage - Visible Passes

Search period start: 16 January 2026 00:00
Search period end: 26 January 2026 00:00
Orbit: 522 x 610 km, 62.0° (Epoch: 16 January)

Date Brightness Start Highest point End Pass type
(mag) Time Alt. Az. Time Alt. Az. Time Alt. Az.
16 Jan 5.3 05:03:14 17° ESE 05:03:14 17° ESE 05:04:15 10° ESE visible
16 Jan 4.1 06:39:17 19° WSW 06:39:17 19° WSW 06:42:05 10° SSW visible
17 Jan 5.5 05:04:12 13° SE 05:04:12 13° SE 05:04:39 10° SE visible
17 Jan 4.7 06:40:15 12° SW 06:40:15 12° SW 06:41:03 10° SW visible
19 Jan 4.6 18:58:39 10° SSE 19:00:01 14° SE 19:00:01 14° SE visible
19 Jan 5.4 20:35:30 10° SW 20:36:05 14° SW 20:36:05 14° SW visible
20 Jan 3.9 18:57:48 10° SSE 19:00:58 22° ESE 19:01:04 22° ESE visible
20 Jan 5.2 20:35:56 10° WSW 20:37:08 18° WSW 20:37:08 18° WSW visible
21 Jan 3.4 18:57:22 10° S 19:01:03 32° ESE 19:02:01 28° E visible
21 Jan 5.2 20:36:31 10° WSW 20:38:05 19° W 20:38:05 19° W visible
22 Jan 2.8 18:57:11 10° SSW 19:01:08 49° ESE 19:02:54 28° ENE visible
22 Jan 5.2 20:37:14 10° W 20:38:57 18° WNW 20:38:57 18° WNW visible
23 Jan 2.5 18:57:12 10° SSW 19:01:16 75° SE 19:03:40 23° NE visible
23 Jan 5.4 20:38:10 10° WNW 20:39:44 15° NW 20:39:44 15° NW visible
24 Jan 2.7 18:57:22 10° SW 19:01:27 73° NW 19:04:22 18° NNE visible
24 Jan 5.5 20:39:23 10° WNW 20:40:25 12° NW 20:40:25 12° NW visible
25 Jan 3.4 18:57:41 10° SW 19:01:40 48° NW 19:04:59 14° NNE visible
